Météo par heure à Chernaya Rechka

Ce jour, 1 Octobre, Jeudi

Heure Température Précipitation Vent Pression Humidité
00:00 +14°C° 0 mm 4 m/s 757 mmHg 56%
01:00 +13°C° 0 mm 4 m/s 757 mmHg 57%
02:00 +13°C° 0 mm 4 m/s 757 mmHg 59%
03:00 +12°C° 0 mm 4 m/s 757 mmHg 60%
04:00 +12°C° 0 mm 4 m/s 757 mmHg 60%
05:00 +12°C° 0 mm 4 m/s 757 mmHg 59%
06:00 +11°C° 0 mm 4 m/s 757 mmHg 59%
07:00 +12°C° 0 mm 4 m/s 758 mmHg 54%
08:00 +13°C° 0 mm 5 m/s 758 mmHg 49%
09:00 +14°C° 0 mm 5 m/s 758 mmHg 45%
10:00 +16°C° 0 mm 5 m/s 758 mmHg 41%
11:00 +17°C° 0 mm 5 m/s 758 mmHg 37%
12:00 +19°C° 0 mm 6 m/s 758 mmHg 33%
13:00 +20°C° 0 mm 6 m/s 758 mmHg 33%
14:00 +20°C° 0 mm 5 m/s 758 mmHg 32%
15:00 +20°C° 0 mm 5 m/s 757 mmHg 32%
16:00 +19°C° 0 mm 5 m/s 757 mmHg 36%
17:00 +17°C° 0 mm 4 m/s 757 mmHg 40%
18:00 +15°C° 0 mm 4 m/s 757 mmHg 44%
19:00 +14°C° 0 mm 4 m/s 757 mmHg 45%
20:00 +13°C° 0 mm 4 m/s 757 mmHg 46%
21:00 +13°C° 0 mm 4 m/s 758 mmHg 47%
22:00 +12°C° 0 mm 4 m/s 758 mmHg 47%
23:00 +12°C° 0 mm 4 m/s 758 mmHg 48%

Demain, 2 Octobre, Vendredi

Heure Température Précipitation Vent Pression Humidité
00:00 +12°C° 0 mm 4 m/s 757 mmHg 48%
01:00 +11°C° 0 mm 4 m/s 758 mmHg 49%
02:00 +11°C° 0 mm 4 m/s 758 mmHg 51%
03:00 +11°C° 0 mm 4 m/s 758 mmHg 52%
04:00 +11°C° 0 mm 4 m/s 758 mmHg 54%
05:00 +10°C° 0 mm 4 m/s 758 mmHg 56%
06:00 +10°C° 0 mm 3 m/s 758 mmHg 58%
07:00 +11°C° 0 mm 4 m/s 758 mmHg 59%
08:00 +12°C° 0 mm 4 m/s 758 mmHg 59%
09:00 +14°C° 0 mm 5 m/s 758 mmHg 59%
10:00 +15°C° 0 mm 5 m/s 758 mmHg 55%
11:00 +16°C° 0 mm 5 m/s 758 mmHg 52%
12:00 +19°C° 0 mm 5 m/s 758 mmHg 49%
13:00 +19°C° 0 mm 5 m/s 758 mmHg 48%
14:00 +19°C° 0 mm 5 m/s 758 mmHg 48%
15:00 +20°C° 0 mm 5 m/s 757 mmHg 47%
16:00 +18°C° 0 mm 4 m/s 757 mmHg 51%
17:00 +17°C° 0 mm 4 m/s 757 mmHg 55%
18:00 +16°C° 0 mm 3 m/s 757 mmHg 59%
19:00 +14°C° 0 mm 3 m/s 758 mmHg 61%
20:00 +13°C° 0 mm 3 m/s 758 mmHg 63%
21:00 +13°C° 0 mm 3 m/s 758 mmHg 65%
22:00 +12°C° 0 mm 3 m/s 758 mmHg 65%
23:00 +12°C° 0 mm 3 m/s 758 mmHg 65%

Après-demain, 3 Octobre, Samedi

Heure Température Précipitation Vent Pression Humidité
00:00 +12°C° 0 mm 3 m/s 758 mmHg 65%
01:00 +12°C° 0 mm 3 m/s 758 mmHg 64%
02:00 +12°C° 0 mm 3 m/s 758 mmHg 64%
03:00 +11°C° 0 mm 3 m/s 758 mmHg 64%
04:00 +11°C° 0 mm 3 m/s 758 mmHg 65%
05:00 +11°C° 0 mm 3 m/s 758 mmHg 66%
06:00 +10°C° 0 mm 3 m/s 759 mmHg 67%
07:00 +11°C° 0 mm 3 m/s 759 mmHg 64%
08:00 +13°C° 0 mm 4 m/s 759 mmHg 60%
09:00 +14°C° 0 mm 4 m/s 759 mmHg 57%
10:00 +15°C° 0 mm 4 m/s 759 mmHg 53%
11:00 +18°C° 0 mm 4 m/s 759 mmHg 49%
12:00 +19°C° 0 mm 4 m/s 759 mmHg 45%
13:00 +19°C° 0 mm 4 m/s 759 mmHg 44%
14:00 +19°C° 0 mm 3 m/s 759 mmHg 44%
15:00 +20°C° 0 mm 3 m/s 759 mmHg 43%
16:00 +18°C° 0 mm 3 m/s 759 mmHg 47%
17:00 +17°C° 0 mm 3 m/s 759 mmHg 51%
18:00 +16°C° 0 mm 2 m/s 759 mmHg 55%
19:00 +15°C° 0 mm 2 m/s 759 mmHg 56%
20:00 +15°C° 0 mm 2 m/s 759 mmHg 58%
21:00 +14°C° 0 mm 2 m/s 759 mmHg 59%
22:00 +14°C° 0 mm 2 m/s 759 mmHg 59%
23:00 +14°C° 0 mm 2 m/s 759 mmHg 60%

4 Octobre, Dimanche

Heure Température Précipitation Vent Pression Humidité
00:00 +13°C° 0 mm 2 m/s 759 mmHg 60%
01:00 +13°C° 0 mm 2 m/s 759 mmHg 60%
02:00 +13°C° 0 mm 2 m/s 759 mmHg 59%
03:00 +13°C° 0 mm 2 m/s 760 mmHg 59%
04:00 +12°C° 0 mm 2 m/s 760 mmHg 60%
05:00 +12°C° 0 mm 2 m/s 760 mmHg 60%
06:00 +12°C° 0 mm 2 m/s 760 mmHg 61%
07:00 +13°C° 0 mm 2 m/s 760 mmHg 57%
08:00 +14°C° 0 mm 2 m/s 760 mmHg 54%
09:00 +15°C° 0 mm 2 m/s 760 mmHg 51%
10:00 +17°C° 0 mm 2 m/s 760 mmHg 46%
11:00 +18°C° 0 mm 3 m/s 760 mmHg 42%
12:00 +20°C° 0 mm 3 m/s 760 mmHg 37%
13:00 +20°C° 0 mm 3 m/s 760 mmHg 37%
14:00 +20°C° 0 mm 3 m/s 760 mmHg 36%
15:00 +20°C° 0 mm 3 m/s 760 mmHg 35%
16:00 +19°C° 0 mm 3 m/s 760 mmHg 40%
17:00 +17°C° 0 mm 2 m/s 760 mmHg 45%
18:00 +16°C° 0 mm 2 m/s 760 mmHg 49%
19:00 +15°C° 0 mm 2 m/s 760 mmHg 53%
20:00 +14°C° 0 mm 2 m/s 760 mmHg 56%
21:00 +14°C° 0 mm 2 m/s 760 mmHg 59%
22:00 +13°C° 0 mm 2 m/s 761 mmHg 62%
23:00 +13°C° 0 mm 2 m/s 761 mmHg 65%

5 Octobre, Lundi

Heure Température Précipitation Vent Pression Humidité
00:00 +12°C° 0 mm 2 m/s 761 mmHg 68%
01:00 +12°C° 0 mm 2 m/s 761 mmHg 70%
02:00 +12°C° 0 mm 2 m/s 761 mmHg 72%
03:00 +10°C° 0 mm 2 m/s 761 mmHg 74%
04:00 +10°C° 0 mm 2 m/s 761 mmHg 76%
05:00 +10°C° 0 mm 2 m/s 762 mmHg 78%
06:00 +9°C° 0 mm 2 m/s 762 mmHg 79%
07:00 +11°C° 0 mm 3 m/s 762 mmHg 74%
08:00 +12°C° 0 mm 3 m/s 762 mmHg 69%
09:00 +13°C° 0 mm 3 m/s 762 mmHg 64%
10:00 +16°C° 0 mm 3 m/s 762 mmHg 59%
11:00 +17°C° 0 mm 3 m/s 762 mmHg 53%
12:00 +19°C° 0 mm 4 m/s 762 mmHg 48%
13:00 +19°C° 0 mm 3 m/s 762 mmHg 46%
14:00 +19°C° 0 mm 3 m/s 761 mmHg 44%
15:00 +20°C° 0 mm 3 m/s 761 mmHg 43%
16:00 +18°C° 0 mm 3 m/s 761 mmHg 47%
17:00 +16°C° 0 mm 3 m/s 761 mmHg 52%
18:00 +14°C° 0 mm 3 m/s 761 mmHg 56%
19:00 +13°C° 0 mm 3 m/s 761 mmHg 58%
20:00 +12°C° 0 mm 3 m/s 761 mmHg 60%
21:00 +12°C° 0 mm 3 m/s 761 mmHg 61%
22:00 +11°C° 0 mm 3 m/s 761 mmHg 61%
23:00 +11°C° 0 mm 3 m/s 761 mmHg 61%

6 Octobre, Mardi

Heure Température Précipitation Vent Pression Humidité
00:00 +10°C° 0 mm 3 m/s 761 mmHg 61%
01:00 +10°C° 0 mm 3 m/s 761 mmHg 62%
02:00 +9°C° 0 mm 3 m/s 761 mmHg 62%
03:00 +9°C° 0 mm 3 m/s 761 mmHg 63%
04:00 +9°C° 0 mm 3 m/s 760 mmHg 65%
05:00 +8°C° 0 mm 3 m/s 760 mmHg 67%
06:00 +8°C° 0 mm 3 m/s 760 mmHg 69%
07:00 +9°C° 0 mm 3 m/s 760 mmHg 66%
08:00 +11°C° 0 mm 3 m/s 760 mmHg 63%
09:00 +12°C° 0 mm 4 m/s 760 mmHg 60%
10:00 +14°C° 0 mm 4 m/s 760 mmHg 56%
11:00 +15°C° 0 mm 4 m/s 760 mmHg 51%
12:00 +18°C° 0 mm 4 m/s 759 mmHg 47%
13:00 +18°C° 0 mm 4 m/s 759 mmHg 45%
14:00 +19°C° 0 mm 3 m/s 759 mmHg 44%
15:00 +19°C° 0 mm 3 m/s 758 mmHg 42%
16:00 +18°C° 0 mm 3 m/s 758 mmHg 46%
17:00 +16°C° 0 mm 3 m/s 758 mmHg 51%
18:00 +14°C° 0 mm 3 m/s 758 mmHg 55%
19:00 +13°C° 0 mm 3 m/s 758 mmHg 55%
20:00 +12°C° 0 mm 3 m/s 758 mmHg 56%
21:00 +12°C° 0 mm 3 m/s 758 mmHg 56%
22:00 +11°C° 0 mm 3 m/s 758 mmHg 56%
23:00 +11°C° 0 mm 3 m/s 758 mmHg 56%
Voir plus

We Need Your Consent

Meteoprog and our Service Providers may store and access personal data such as cookies, device identifiers or other similar technologies on your device and process such data to personalise content and ads, as well as provide social media features and to analyse the traffic.

  • Store and/or access information on your device

    Cookies, device identifiers or other information can be stored or accessed on your device for the purposes indicated above.

  • Personalised ads and content, ad and content measurement, audience insights, and products development

    Ads and content can be personalised based on a profile. More data can be added to better personalise ads and content. Ad and content performance can be measured. Insights about the audience who saw the ads and content can be derived. Such data can be used to develop or improve user’s experience, systems and software.

By clicking ‘I Agree’ you will allow the use of indicated cookies, device identifiers, web beacons or other similar technologies. Your settings can be changed in the browser on your device.

For certain purposes, legitimate interests may be relied on, rather than consent. You can read more about this in our Privacy and Cookie Policy.